TAM3685 SBFI-SBGL

Flight info

Callsign TAM3685
Flight time 1h 29m
Altitude 35000
Route KAMIL UZ28 XONUG DCT UREMI UZ42 VUREP
Aircraft A21N/M-SDE3FGHIRWY/LB1

Departure

Time 2026-04-20 17:51
Airport Cataratas International Airport (SBFI)

Arrival

Time 2026-04-20 19:20
Airport Rio Galeão – Tom Jobim International Airport (SBGL)
Time Latitude Longitude Altitude Speed Heading
2026-04-20 17:04 -25.59694 -54.48850 804 ft 0 kts 220°
2026-04-20 17:42 -25.59679 -54.48837 804 ft 4 kts 209°
2026-04-20 17:42 -25.59655 -54.48829 804 ft 4 kts 174°
2026-04-20 17:43 -25.59633 -54.48839 804 ft 3 kts 132°
2026-04-20 17:43 -25.59629 -54.48845 804 ft 0 kts 131°
2026-04-20 17:46 -25.59631 -54.48842 804 ft 2 kts 131°
2026-04-20 17:47 -25.59647 -54.48822 804 ft 5 kts 131°
2026-04-20 17:47 -25.59678 -54.48782 804 ft 8 kts 131°
2026-04-20 17:47 -25.59724 -54.48723 804 ft 12 kts 131°
2026-04-20 17:47 -25.59780 -54.48651 803 ft 13 kts 131°
2026-04-20 17:48 -25.59843 -54.48571 803 ft 14 kts 128°
2026-04-20 17:48 -25.59804 -54.48482 800 ft 15 kts 68°
2026-04-20 17:48 -25.59856 -54.48386 802 ft 16 kts 132°
2026-04-20 17:48 -25.59932 -54.48284 802 ft 18 kts 129°
2026-04-20 17:49 -25.60014 -54.48176 804 ft 19 kts 130°
2026-04-20 17:49 -25.60104 -54.48060 807 ft 21 kts 130°
2026-04-20 17:49 -25.60217 -54.47964 805 ft 18 kts 159°
2026-04-20 17:49 -25.60207 -54.47928 806 ft 8 kts 319°
2026-04-20 17:50 -25.60192 -54.47949 806 ft 0 kts 311°
2026-04-20 17:50 -25.60035 -54.48149 805 ft 74 kts 310°
2026-04-20 17:50 -25.59538 -54.48788 804 ft 147 kts 311°
2026-04-20 17:50 -25.58776 -54.49780 1148 ft 177 kts 313°
2026-04-20 17:51 -25.57977 -54.50856 1720 ft 187 kts 312°
2026-04-20 17:51 -25.57100 -54.52011 2105 ft 204 kts 313°
2026-04-20 17:51 -25.56132 -54.53217 2650 ft 214 kts 315°
2026-04-20 17:51 -25.55112 -54.54480 3172 ft 228 kts 319°
2026-04-20 17:52 -25.53705 -54.55365 3562 ft 243 kts 348°
2026-04-20 17:52 -25.52007 -54.55312 4163 ft 252 kts 16°
2026-04-20 17:52 -25.50535 -54.54274 4876 ft 263 kts 45°
2026-04-20 17:52 -25.49713 -54.52412 5628 ft 276 kts 77°
2026-04-20 17:53 -25.49778 -54.50292 6326 ft 286 kts 96°
2026-04-20 17:53 -25.50134 -54.48114 7052 ft 288 kts 98°
2026-04-20 17:53 -25.50482 -54.45921 7790 ft 290 kts 97°
2026-04-20 17:53 -25.50799 -54.43706 8533 ft 292 kts 96°
2026-04-20 17:54 -25.51094 -54.41476 9277 ft 294 kts 96°
2026-04-20 17:54 -25.51379 -54.39226 10000 ft 296 kts 96°
2026-04-20 17:54 -25.51662 -54.36924 10441 ft 308 kts 96°
2026-04-20 17:54 -25.51803 -54.34507 10797 ft 321 kts 86°
2026-04-20 17:55 -25.51672 -54.32007 11291 ft 329 kts 84°
2026-04-20 17:55 -25.51509 -54.29470 11911 ft 333 kts 84°
2026-04-20 17:55 -25.51351 -54.26895 12552 ft 337 kts 84°
2026-04-20 17:55 -25.51201 -54.24296 13198 ft 340 kts 84°
2026-04-20 17:56 -25.51055 -54.21671 13837 ft 344 kts 84°
2026-04-20 17:56 -25.50909 -54.19010 14399 ft 348 kts 84°
2026-04-20 17:56 -25.50762 -54.16324 14961 ft 352 kts 84°
2026-04-20 17:56 -25.50613 -54.13603 15525 ft 356 kts 84°
2026-04-20 17:57 -25.50464 -54.10858 16103 ft 360 kts 84°
2026-04-20 17:57 -25.50313 -54.08073 16671 ft 364 kts 84°
2026-04-20 17:57 -25.50160 -54.05265 17233 ft 368 kts 84°
2026-04-20 17:57 -25.50003 -54.02421 17794 ft 372 kts 84°
2026-04-20 17:58 -25.49844 -53.99551 18326 ft 376 kts 84°
2026-04-20 17:58 -25.49683 -53.96649 18812 ft 379 kts 84°
2026-04-20 17:58 -25.49521 -53.93725 19319 ft 382 kts 84°
2026-04-20 17:58 -25.49357 -53.90783 19822 ft 385 kts 84°
2026-04-20 17:59 -25.49191 -53.87820 20320 ft 388 kts 84°
2026-04-20 17:59 -25.49022 -53.84830 20826 ft 391 kts 84°
2026-04-20 17:59 -25.48852 -53.81819 21326 ft 393 kts 84°
2026-04-20 17:59 -25.48680 -53.78786 21808 ft 397 kts 84°
2026-04-20 18:00 -25.48507 -53.75729 22303 ft 400 kts 84°
2026-04-20 18:00 -25.48330 -53.72646 22796 ft 402 kts 84°
2026-04-20 18:00 -25.48152 -53.69549 23285 ft 405 kts 84°
2026-04-20 18:00 -25.47972 -53.66424 23717 ft 408 kts 84°
2026-04-20 18:01 -25.47790 -53.63287 24092 ft 410 kts 84°
2026-04-20 18:01 -25.47607 -53.60122 24466 ft 413 kts 84°
2026-04-20 18:01 -25.47423 -53.56942 24838 ft 416 kts 84°
2026-04-20 18:01 -25.47237 -53.53742 25208 ft 419 kts 84°
2026-04-20 18:02 -25.47048 -53.50509 25567 ft 422 kts 84°
2026-04-20 18:02 -25.46855 -53.47264 25932 ft 424 kts 85°
2026-04-20 18:02 -25.46661 -53.43997 26287 ft 427 kts 85°
2026-04-20 18:02 -25.46466 -53.40713 26633 ft 429 kts 85°
2026-04-20 18:03 -25.46270 -53.37402 26976 ft 432 kts 85°
2026-04-20 18:03 -25.46071 -53.34084 27306 ft 435 kts 85°
2026-04-20 18:03 -25.45871 -53.30728 27627 ft 438 kts 85°
2026-04-20 18:03 -25.45669 -53.27362 27949 ft 440 kts 85°
2026-04-20 18:04 -25.45464 -53.23973 28286 ft 442 kts 85°
2026-04-20 18:04 -25.45258 -53.20575 28629 ft 444 kts 85°
2026-04-20 18:04 -25.45050 -53.17158 28944 ft 446 kts 85°
2026-04-20 18:04 -25.44841 -53.13726 29244 ft 448 kts 85°
2026-04-20 18:05 -25.44418 -53.06819 29825 ft 452 kts 85°
2026-04-20 18:05 -25.44203 -53.03339 30105 ft 455 kts 85°
2026-04-20 18:05 -25.43985 -52.99843 30318 ft 457 kts 85°
2026-04-20 18:06 -25.43634 -52.96346 30520 ft 459 kts 79°
2026-04-20 18:06 -25.42996 -52.92876 30724 ft 461 kts 77°
2026-04-20 18:06 -25.42317 -52.89404 30925 ft 463 kts 77°
2026-04-20 18:06 -25.41632 -52.85912 31133 ft 465 kts 77°
2026-04-20 18:07 -25.40949 -52.82406 31324 ft 468 kts 77°
2026-04-20 18:07 -25.40265 -52.78880 31522 ft 470 kts 77°
2026-04-20 18:07 -25.39579 -52.75336 31709 ft 472 kts 77°
2026-04-20 18:07 -25.38891 -52.71778 31887 ft 475 kts 78°
2026-04-20 18:08 -25.38197 -52.68193 32077 ft 477 kts 77°
2026-04-20 18:08 -25.37499 -52.64599 32271 ft 479 kts 78°
2026-04-20 18:08 -25.36799 -52.60994 32472 ft 481 kts 78°
2026-04-20 18:08 -25.36095 -52.57374 32701 ft 482 kts 78°
2026-04-20 18:09 -25.35398 -52.53796 32938 ft 482 kts 78°
2026-04-20 18:09 -25.34689 -52.50171 33174 ft 483 kts 78°
2026-04-20 18:09 -25.34210 -52.47726 33323 ft 483 kts 78°
2026-04-20 18:09 -25.33500 -52.44087 33550 ft 484 kts 78°
2026-04-20 18:10 -25.32792 -52.40462 33769 ft 484 kts 78°
2026-04-20 18:10 -25.32080 -52.36815 33981 ft 485 kts 78°
2026-04-20 18:10 -25.31364 -52.33177 34169 ft 485 kts 78°
2026-04-20 18:10 -25.30647 -52.29538 34344 ft 485 kts 78°
2026-04-20 18:11 -25.29930 -52.25896 34548 ft 485 kts 78°
2026-04-20 18:11 -25.29211 -52.22262 34744 ft 484 kts 78°
2026-04-20 18:11 -25.28493 -52.18635 34941 ft 484 kts 78°
2026-04-20 18:11 -25.27771 -52.14991 35049 ft 486 kts 78°
2026-04-20 18:12 -25.26320 -52.07700 35048 ft 486 kts 78°
2026-04-20 18:12 -25.24866 -52.00405 35029 ft 486 kts 78°
2026-04-20 18:13 -25.23414 -51.93130 35029 ft 485 kts 78°
2026-04-20 18:13 -25.21955 -51.85846 35038 ft 489 kts 78°
2026-04-20 18:14 -25.20472 -51.78449 35044 ft 497 kts 78°
2026-04-20 18:14 -25.18960 -51.70934 35051 ft 505 kts 78°
2026-04-20 18:15 -25.17438 -51.63405 35049 ft 506 kts 78°
2026-04-20 18:15 -25.15899 -51.55822 35050 ft 506 kts 78°
2026-04-20 18:16 -25.14360 -51.48268 35053 ft 505 kts 78°
2026-04-20 18:16 -25.12816 -51.40709 35056 ft 505 kts 78°
2026-04-20 18:17 -25.11271 -51.33148 35045 ft 506 kts 78°
2026-04-20 18:17 -25.09716 -51.25579 35050 ft 506 kts 78°
2026-04-20 18:18 -25.08158 -51.18012 35055 ft 506 kts 78°
2026-04-20 18:18 -25.06599 -51.10448 35049 ft 506 kts 78°
2026-04-20 18:19 -25.05036 -51.02889 35048 ft 506 kts 78°
2026-04-20 18:19 -25.03466 -50.95334 35043 ft 505 kts 78°
2026-04-20 18:20 -25.01885 -50.87786 35043 ft 505 kts 78°
2026-04-20 18:20 -25.00305 -50.80242 35045 ft 505 kts 78°
2026-04-20 18:21 -24.98719 -50.72701 35044 ft 505 kts 78°
2026-04-20 18:21 -24.97133 -50.65171 35044 ft 504 kts 78°
2026-04-20 18:22 -24.95548 -50.57645 35048 ft 504 kts 78°
2026-04-20 18:22 -24.93959 -50.50126 35050 ft 504 kts 78°
2026-04-20 18:23 -24.92366 -50.42614 35050 ft 504 kts 78°
2026-04-20 18:23 -24.90771 -50.35093 35048 ft 504 kts 78°
2026-04-20 18:24 -24.89178 -50.27584 35056 ft 503 kts 78°
2026-04-20 18:24 -24.87563 -50.20077 35059 ft 504 kts 78°
2026-04-20 18:25 -24.85952 -50.12578 35058 ft 503 kts 78°
2026-04-20 18:25 -24.84339 -50.05084 35066 ft 503 kts 78°
2026-04-20 18:26 -24.82725 -49.97594 35063 ft 503 kts 78°
2026-04-20 18:26 -24.81106 -49.90110 35063 ft 502 kts 78°
2026-04-20 18:27 -24.79462 -49.82644 35066 ft 503 kts 76°
2026-04-20 18:27 -24.77546 -49.75238 35068 ft 503 kts 76°
2026-04-20 18:28 -24.75612 -49.67856 35067 ft 502 kts 76°
2026-04-20 18:28 -24.73678 -49.60483 35064 ft 502 kts 76°
2026-04-20 18:29 -24.71744 -49.53116 35066 ft 501 kts 76°
2026-04-20 18:29 -24.69808 -49.45760 35062 ft 500 kts 76°
2026-04-20 18:30 -24.67870 -49.38411 35062 ft 500 kts 76°
2026-04-20 18:30 -24.65953 -49.31062 35065 ft 501 kts 76°
2026-04-20 18:31 -24.64030 -49.23718 35062 ft 499 kts 76°
2026-04-20 18:31 -24.62122 -49.16436 35071 ft 499 kts 76°
2026-04-20 18:32 -24.60153 -49.09124 35064 ft 499 kts 75°
2026-04-20 18:32 -24.58172 -49.01828 35062 ft 498 kts 75°
2026-04-20 18:33 -24.56202 -48.94533 35063 ft 498 kts 75°
2026-04-20 18:33 -24.54231 -48.87244 35067 ft 498 kts 75°
2026-04-20 18:34 -24.52253 -48.79957 35072 ft 498 kts 75°
2026-04-20 18:34 -24.50277 -48.72668 35070 ft 498 kts 75°
2026-04-20 18:35 -24.48307 -48.65380 35071 ft 498 kts 75°
2026-04-20 18:35 -24.46334 -48.58093 35071 ft 498 kts 75°
2026-04-20 18:36 -24.44360 -48.50813 35071 ft 498 kts 75°
2026-04-20 18:36 -24.42380 -48.43535 35071 ft 498 kts 75°
2026-04-20 18:37 -24.40400 -48.36275 35072 ft 496 kts 75°
2026-04-20 18:37 -24.38418 -48.29016 35070 ft 496 kts 75°
2026-04-20 18:38 -24.36434 -48.21771 35067 ft 497 kts 75°
2026-04-20 18:38 -24.34352 -48.14569 35068 ft 496 kts 71°
2026-04-20 18:39 -24.31875 -48.07501 35077 ft 496 kts 71°
2026-04-20 18:39 -24.29384 -48.00451 35069 ft 496 kts 71°
2026-04-20 18:40 -24.26900 -47.93404 35067 ft 495 kts 71°
2026-04-20 18:40 -24.24415 -47.86376 35066 ft 495 kts 71°
2026-04-20 18:41 -24.21927 -47.79345 35071 ft 495 kts 71°
2026-04-20 18:41 -24.19446 -47.72332 35068 ft 493 kts 71°
2026-04-20 18:42 -24.16969 -47.65334 35069 ft 492 kts 71°
2026-04-20 18:42 -24.14480 -47.58346 35073 ft 493 kts 71°
2026-04-20 18:43 -24.11981 -47.51366 35073 ft 492 kts 71°
2026-04-20 18:43 -24.09489 -47.44390 35076 ft 492 kts 71°
2026-04-20 18:44 -24.06997 -47.37416 35079 ft 492 kts 71°
2026-04-20 18:44 -24.04504 -47.30452 35078 ft 492 kts 71°
2026-04-20 18:45 -24.02003 -47.23488 35079 ft 492 kts 71°
2026-04-20 18:45 -23.99505 -47.16538 35090 ft 491 kts 71°
2026-04-20 18:46 -23.97001 -47.09571 35101 ft 492 kts 71°
2026-04-20 18:46 -23.94489 -47.02609 35107 ft 492 kts 71°
2026-04-20 18:47 -23.91976 -46.95646 35103 ft 492 kts 71°
2026-04-20 18:47 -23.89457 -46.88677 35098 ft 493 kts 71°
2026-04-20 18:48 -23.86933 -46.81714 35118 ft 493 kts 71°
2026-04-20 18:48 -23.84407 -46.74754 35155 ft 493 kts 71°
2026-04-20 18:49 -23.81879 -46.67797 35147 ft 493 kts 71°
2026-04-20 18:49 -23.79346 -46.60849 35152 ft 492 kts 71°
2026-04-20 18:50 -23.76824 -46.53935 35156 ft 488 kts 71°
2026-04-20 18:50 -23.74319 -46.47070 35139 ft 485 kts 71°
2026-04-20 18:51 -23.71805 -46.40196 35127 ft 491 kts 71°
2026-04-20 18:51 -23.69260 -46.33242 35102 ft 495 kts 71°
2026-04-20 18:52 -23.67115 -46.27401 35095 ft 495 kts 71°
2026-04-20 18:52 -23.64557 -46.20442 35089 ft 495 kts 71°
2026-04-20 18:53 -23.61992 -46.13472 35080 ft 495 kts 71°
2026-04-20 18:53 -23.59427 -46.06513 35078 ft 495 kts 71°
2026-04-20 18:54 -23.56851 -45.99546 35080 ft 495 kts 71°
2026-04-20 18:54 -23.54278 -45.92584 35087 ft 496 kts 71°
2026-04-20 18:55 -23.51701 -45.85622 35087 ft 495 kts 71°
2026-04-20 18:55 -23.49117 -45.78666 35093 ft 495 kts 71°
2026-04-20 18:56 -23.46534 -45.71715 35092 ft 495 kts 71°
2026-04-20 18:56 -23.43954 -45.64769 35084 ft 495 kts 71°
2026-04-20 18:57 -23.41365 -45.57832 35086 ft 495 kts 71°
2026-04-20 18:57 -23.38874 -45.50870 35068 ft 491 kts 77°
2026-04-20 18:58 -23.37285 -45.43675 35074 ft 488 kts 81°
2026-04-20 18:58 -23.35763 -45.36473 35080 ft 488 kts 81°
2026-04-20 18:59 -23.34225 -45.29281 35079 ft 487 kts 81°
2026-04-20 18:59 -23.32690 -45.22118 35070 ft 485 kts 81°
2026-04-20 19:00 -23.31154 -45.14981 35081 ft 483 kts 81°
2026-04-20 19:00 -23.29613 -45.07822 35085 ft 490 kts 81°
2026-04-20 19:01 -23.28052 -45.00576 35078 ft 492 kts 81°
2026-04-20 19:01 -23.26488 -44.93348 35080 ft 490 kts 81°
2026-04-20 19:02 -23.25709 -44.89773 34715 ft 483 kts 81°
2026-04-20 19:02 -23.24936 -44.86223 33977 ft 483 kts 80°
2026-04-20 19:02 -23.24157 -44.82651 32985 ft 487 kts 80°
2026-04-20 19:02 -23.23376 -44.79066 32081 ft 489 kts 79°
2026-04-20 19:03 -23.22590 -44.75458 31204 ft 491 kts 79°
2026-04-20 19:03 -23.21801 -44.71844 30350 ft 492 kts 79°
2026-04-20 19:03 -23.21010 -44.68224 29419 ft 492 kts 78°
2026-04-20 19:03 -23.20219 -44.64609 28566 ft 490 kts 79°
2026-04-20 19:04 -23.19433 -44.61022 27776 ft 486 kts 79°
2026-04-20 19:04 -23.18650 -44.57467 27010 ft 483 kts 79°
2026-04-20 19:04 -23.17614 -44.54006 26254 ft 483 kts 69°
2026-04-20 19:04 -23.16181 -44.50700 25524 ft 480 kts 67°
2026-04-20 19:05 -23.14737 -44.47463 24819 ft 474 kts 67°
2026-04-20 19:05 -23.13309 -44.44252 24087 ft 470 kts 67°
2026-04-20 19:05 -23.11900 -44.41074 23316 ft 465 kts 68°
2026-04-20 19:05 -23.10506 -44.37919 22506 ft 460 kts 68°
2026-04-20 19:06 -23.09131 -44.34799 21723 ft 456 kts 68°
2026-04-20 19:06 -23.07768 -44.31714 20987 ft 450 kts 68°
2026-04-20 19:06 -23.06419 -44.28664 20283 ft 445 kts 68°
2026-04-20 19:06 -23.05085 -44.25651 19614 ft 440 kts 68°
2026-04-20 19:07 -23.03768 -44.22674 18988 ft 434 kts 67°
2026-04-20 19:07 -23.02519 -44.19708 18106 ft 434 kts 70°
2026-04-20 19:07 -23.01347 -44.16694 17154 ft 430 kts 70°
2026-04-20 19:07 -23.00197 -44.13725 16296 ft 423 kts 70°
2026-04-20 19:08 -22.99057 -44.10798 15433 ft 418 kts 69°
2026-04-20 19:08 -22.96818 -44.05076 13959 ft 404 kts 69°
2026-04-20 19:08 -22.95731 -44.02307 13335 ft 394 kts 69°
2026-04-20 19:09 -22.94673 -43.99613 12777 ft 384 kts 68°
2026-04-20 19:09 -22.93630 -43.96960 12255 ft 379 kts 68°
2026-04-20 19:09 -22.92604 -43.94353 11706 ft 374 kts 68°
2026-04-20 19:09 -22.91585 -43.91769 11268 ft 368 kts 68°
2026-04-20 19:10 -22.90609 -43.89295 11006 ft 356 kts 68°
2026-04-20 19:10 -22.89641 -43.86842 10805 ft 343 kts 68°
2026-04-20 19:10 -22.88721 -43.84508 10610 ft 330 kts 68°
2026-04-20 19:10 -22.87834 -43.82261 10448 ft 318 kts 68°
2026-04-20 19:11 -22.86975 -43.80082 10042 ft 312 kts 68°
2026-04-20 19:11 -22.86121 -43.77921 9467 ft 311 kts 68°
2026-04-20 19:11 -22.85274 -43.75774 8942 ft 308 kts 68°
2026-04-20 19:11 -22.84434 -43.73647 8471 ft 304 kts 68°
2026-04-20 19:12 -22.83603 -43.71545 8042 ft 303 kts 68°
2026-04-20 19:12 -22.82777 -43.69456 7633 ft 301 kts 67°
2026-04-20 19:12 -22.81955 -43.67381 7228 ft 299 kts 67°
2026-04-20 19:12 -22.81138 -43.65318 6821 ft 297 kts 67°
2026-04-20 19:13 -22.80325 -43.63265 6494 ft 293 kts 67°
2026-04-20 19:13 -22.79534 -43.61276 6392 ft 280 kts 67°
2026-04-20 19:13 -22.78790 -43.59402 6374 ft 263 kts 67°
2026-04-20 19:13 -22.78075 -43.57597 6395 ft 265 kts 67°
2026-04-20 19:14 -22.77339 -43.55743 6407 ft 264 kts 67°
2026-04-20 19:14 -22.76615 -43.53911 6086 ft 264 kts 67°
2026-04-20 19:14 -22.75895 -43.52088 5718 ft 261 kts 67°
2026-04-20 19:14 -22.75195 -43.50314 5435 ft 251 kts 67°
2026-04-20 19:15 -22.74525 -43.48620 5129 ft 239 kts 67°
2026-04-20 19:15 -22.73885 -43.47002 4794 ft 231 kts 68°
2026-04-20 19:15 -22.73257 -43.45414 4363 ft 228 kts 68°
2026-04-20 19:15 -22.72636 -43.43846 3921 ft 225 kts 68°
2026-04-20 19:16 -22.72037 -43.42291 3458 ft 223 kts 72°
2026-04-20 19:16 -22.71900 -43.40721 3122 ft 205 kts 106°
2026-04-20 19:16 -22.72542 -43.39383 2770 ft 196 kts 130°
2026-04-20 19:16 -22.73376 -43.38213 2391 ft 198 kts 131°
2026-04-20 19:17 -22.74195 -43.37016 2081 ft 192 kts 129°
2026-04-20 19:17 -22.74943 -43.35905 2013 ft 174 kts 130°
2026-04-20 19:17 -22.75614 -43.34907 1987 ft 155 kts 130°
2026-04-20 19:17 -22.76237 -43.33977 1823 ft 151 kts 130°
2026-04-20 19:18 -22.76846 -43.33051 1610 ft 150 kts 130°
2026-04-20 19:18 -22.77453 -43.32132 1389 ft 149 kts 129°
2026-04-20 19:18 -22.78057 -43.31219 1172 ft 149 kts 130°
2026-04-20 19:18 -22.78661 -43.30308 956 ft 149 kts 129°
2026-04-20 19:19 -22.79264 -43.29400 756 ft 148 kts 128°
2026-04-20 19:19 -22.79841 -43.28508 542 ft 143 kts 127°
2026-04-20 19:19 -22.80410 -43.27620 320 ft 146 kts 128°
2026-04-20 19:19 -22.81000 -43.26715 173 ft 147 kts 130°
2026-04-20 19:20 -22.81594 -43.25833 36 ft 139 kts 130°
2026-04-20 19:20 -22.82092 -43.25087 29 ft 99 kts 125°
2026-04-20 19:20 -22.82329 -43.24726 24 ft 28 kts 112°
2026-04-20 19:20 -22.82359 -43.24571 25 ft 13 kts 96°
2026-04-20 19:21 -22.82366 -43.24487 24 ft 6 kts 84°
2026-04-20 19:21 -22.82332 -43.24460 24 ft 8 kts 341°
2026-04-20 19:21 -22.82287 -43.24518 26 ft 12 kts 307°
2026-04-20 19:21 -22.82234 -43.24598 25 ft 14 kts 302°
2026-04-20 19:22 -22.82179 -43.24686 24 ft 15 kts 305°
2026-04-20 19:22 -22.82105 -43.24727 26 ft 14 kts 24°
2026-04-20 19:22 -22.82028 -43.24667 27 ft 14 kts 37°
2026-04-20 19:22 -22.81953 -43.24614 27 ft 13 kts 31°
2026-04-20 19:23 -22.81870 -43.24598 27 ft 13 kts 31°
2026-04-20 19:23 -22.81791 -43.24551 27 ft 13 kts 356°
2026-04-20 19:23 -22.81721 -43.24597 27 ft 8 kts 316°
2026-04-20 19:23 -22.81697 -43.24629 27 ft 6 kts 306°
2026-04-20 19:24 -22.81673 -43.24667 27 ft 7 kts 304°
2026-04-20 19:24 -22.81644 -43.24712 27 ft 8 kts 304°
2026-04-20 19:24 -22.81612 -43.24763 27 ft 9 kts 301°
2026-04-20 19:24 -22.81575 -43.24778 27 ft 7 kts 32°
2026-04-20 19:25 -22.81545 -43.24749 27 ft 3 kts 43°
2026-04-20 19:25 -22.81544 -43.24748 27 ft 0 kts 43°